Location: Celina Elementary School
(33.3262°N, 96.7767°W)
Time: 09:09:29
(UTC+00:00)

Envisat - Pass Details

Date: 26 November 2021
Orbit: 764 x 766 km, 98.2° (Epoch: 19 January)

Event Time Altitude Azimuth Distance (km) Brightness Sun altitude
Rises 12:13:05 0° 359° (N) 3,237 6.0 -11.7°
Reaches altitude 10° 12:15:39 10° 348° (NNW) 2,307 5.2 -11.1°
Maximum altitude 12:19:57 29° 290° (WNW) 1,392 3.8 -10.3°
Drops below altitude 10° 12:24:14 10° 232° (SW) 2,295 5.2 -9.4°
Sets 12:26:48 0° 221° (SW) 3,217 6.0 -8.9°
